Gemsa, Egypt

8:39 AM EET on May 23, 2017 (GMT +0200)
Gemsa

Weather History for 62463 - April, 2013

Change the Weather History Date:

Thursday, April 18, 2013

  Actual Average Record
Temperature  
Mean Temperature 72 °F -  
Max Temperature 84 °F 86 °F - ()
Min Temperature 60 °F 69 °F - ()
Cooling Degree Days 7    
Growing Degree Days 22 (Base 50)    
Moisture  
Dew Point 46 °F    
Average Humidity 39    
Maximum Humidity 63    
Minimum Humidity 20    
Precipitation  
Precipitation 0.00 in - - ()
Sea Level Pressure  
Sea Level Pressure 29.87 in    
Wind  
Wind Speed 9 mph ()    
Max Wind Speed 18 mph    
Max Gust Speed -    
Visibility 6.0 miles    
Events      
T = Trace of Precipitation, MM = Missing Value Source: Averaged Metar Reports

Daily Weather History Graph

Daily Weather History Graph

Search for Another Location

Airport or City:

Trip Planner

Search our weather history database for the weather conditions in past years. The results will help you decide how hot, cold, wet, or windy it might be!

Date:

Astronomy

Apr. 18, 2013 Rise Set
Actual Time 5:17 AM EET 6:10 PM EET
Civil Twilight 4:53 AM EET 6:34 PM EET
Nautical Twilight 4:25 AM EET 7:03 PM EET
Astronomical Twilight 3:56 AM EET 7:32 PM EET
Moon 11:16 AM EET (4/18) 12:04 AM EET (4/18)
Length of Visible Light 13h 41m
Length of Day
12h 53m
Waxing Crescent, 49% of the Moon is Illuminated
Apr 18
Waxing Crescent
Apr 18
First Quarter
Apr 25
Full
May 2
Last Quarter
May 10
New

Hourly Weather History & Observations

Time (EET) Temp. Dew Point Humidity Pressure Visibility Wind Dir Wind Speed Gust Speed Precip Events Conditions
12:00 AM 64.4 °F 41.0 °F 42% 29.89 in - WNW 6.9 mph - N/A   Clear
1:00 AM 64.4 °F 39.2 °F 40% 29.86 in - West 9.2 mph - N/A   Clear
2:00 AM 63 °F 39 °F 30% 29.88 in 6 mi West 8.1 mph - -  
2:00 AM 62.6 °F 39.2 °F 42% 29.86 in - West 8.1 mph - N/A   Clear
3:00 AM 62.6 °F 41.0 °F 45% 29.86 in - NW 11.5 mph - N/A   Clear
4:00 AM 60.8 °F 41.0 °F 48% 29.86 in - WNW 12.7 mph - N/A   Clear
5:00 AM 60.8 °F 46.4 °F 59% 29.89 in - WNW 13.8 mph - N/A   Clear
6:00 AM 62.6 °F 50.0 °F 63% 29.92 in - WNW 11.5 mph - N/A   Clear
7:00 AM 66.2 °F 51.8 °F 60% 29.92 in - NW 16.1 mph - N/A   Clear
8:00 AM 69.8 °F 50.0 °F 49% 29.92 in - NW 18.4 mph - N/A   Clear
9:00 AM 73.4 °F 44.6 °F 36% 29.92 in - NNW 13.8 mph - N/A   Clear
10:00 AM 77.0 °F 46.4 °F 34% 29.92 in - NNW 11.5 mph - N/A   Clear
11:00 AM 78.8 °F 48.2 °F 34% 29.89 in - NNE 11.5 mph - N/A   Clear
12:00 PM 80.6 °F 46.4 °F 30% 29.89 in - North 12.7 mph - N/A   Clear
1:00 PM 82.4 °F 46.4 °F 28% 29.83 in - North 11.5 mph - N/A   Clear
2:00 PM 84 °F 49 °F 20% 29.83 in 6 mi NNE 10.4 mph - -  
3:00 PM 82.4 °F 50.0 °F 32% 29.80 in - NNE 10.4 mph - N/A   Clear
4:00 PM 82.4 °F 48.2 °F 30% 29.80 in - NNE 6.9 mph - N/A   Clear
5:00 PM 80.6 °F 48.2 °F 32% 29.80 in - NNE 5.8 mph - N/A   Clear
6:00 PM 77.0 °F 48.2 °F 36% 29.83 in - North 3.5 mph - N/A   Clear
7:00 PM 75.2 °F 48.2 °F 38% 29.83 in - NW 2.3 mph - N/A   Clear
8:00 PM 74 °F 48 °F 29% 29.86 in 6 mi NW 4.6 mph - -  
8:00 PM 73.4 °F 48.2 °F 41% 29.86 in - NW 4.6 mph - N/A   Clear
9:00 PM 73.4 °F 48.2 °F 41% 29.86 in - North 6.9 mph - N/A   Clear
10:00 PM 71.6 °F 42.8 °F 35% 29.89 in - NW 8.1 mph - N/A   Clear
11:00 PM 69.8 °F 41.0 °F 35% 29.89 in - NW 5.8 mph - N/A   Clear